Home > Time Zones > World Clock > Weather > Japan > Kyoto > Past weeks

Flag for Japan Weather past 2 weeks in Kyoto, Japan

Now
73 °F

Partly cloudy.


Feels Like: 76 °F
Forecast: 56 / 80 °F
Wind: 9 mph from Northwest

Location: Osaka International Airport

Current Time: Sep 21, 2014 at 9:28:50 PM

Latest Report: Sep 21, 2014 at 8:00 PM


Visibility: N/A

Pressure: 30.04 "Hg

Humidity: 61%

Dew point: 59 °F

Location of KyotoLocation

Historic Weather in Kyoto — Graph

°F

Kyoto temperature yesterday

Maximum temperature yesterday: 73 °F (at 3:00 PM)
Minimum temperature yesterday: 64 °F (at 5:00 AM)
Average temperature yesterday: 70 °F

Past Weeks' High & Low Weather Summary

 TemperatureHumidityPressure
High88 °F (Sep 7, 1:00 PM)100% (Sep 11, 5:00 AM)30.04 "Hg (Sep 11, 5:00 AM)
Low59 °F (Sep 21, 5:00 AM)31% (Sep 10, 2:00 PM)29.59 "Hg (Sep 8, 2:00 PM)
Average75 °F58%29.86 "Hg
* Reported Sep 6 8:00 PM — Sep 21 8:00 PM, Kyoto, Weather by CustomWeather, © 2014

Note: Actual official high and low records may vary slightly from our data, if they occured in-between our weather recording intervals... More about our weather records

Advertising

Kyoto weather history for previous 24 hours

 ConditionsComfort  
Time TempWeatherWind HumidityBarometerVisibility
8:00 PM
Sep 21
73 °FPartly cloudy.9 mph61%30.04 "HgN/A
7:00 PM75 °FPassing clouds.8 mph54%30.01 "HgN/A
6:00 PM77 °FPassing clouds.3 mph42%29.98 "HgN/A
5:00 PM79 °FPartly sunny.6 mph32%29.95 "HgN/A
4:00 PM82 °FPartly sunny.3 mph32%29.95 "HgN/A
3:00 PM82 °FPartly sunny.5 mph32%29.95 "HgN/A
2:00 PM82 °FPartly sunny.3 mph32%29.98 "HgN/A
1:00 PM81 °FPartly sunny.3 mph39%29.98 "HgN/A
12:00 PM77 °FPartly sunny.1 mph44%30.01 "HgN/A
11:00 AM75 °FPartly sunny.3 mph47%30.04 "HgN/A
10:00 AM77 °FPartly sunny.3 mph54%30.04 "HgN/A
9:00 AM72 °FPartly sunny.3 mph61%30.04 "HgN/A
8:00 AM68 °FPartly sunny.2 mph69%30.04 "HgN/A
7:00 AM63 °FScattered clouds.3 mph83%30.04 "HgN/A
6:00 AM59 °FPartly sunny.5 mph88%30.01 "HgN/A
5:00 AM59 °FPassing clouds.5 mph88%30.01 "HgN/A
Weather by CustomWeather, © 2014

See weather overviewHow to use our weather pages